Connellys Springs, NC

5:45 AM EDT on September 28, 2016 (GMT -0400)
Morganton-Lenoir

Weather History for KMRN - December, 2012

Change the Weather History Date:

Tuesday, December 4, 2012

  Actual Average (KHKY) Record (KHKY)
Temperature  
Mean Temperature 53 °F -  
Max Temperature 72 °F 54 °F 74 °F (1956)
Min Temperature 35 °F 32 °F 18 °F (1976)
Degree Days  
Heating Degree Days 12    
Growing Degree Days 3 (Base 50)    
Moisture  
Dew Point 45 °F    
Average Humidity 73    
Maximum Humidity 100    
Minimum Humidity 37    
Precipitation  
Precipitation 0.00 in - - ()
Sea Level Pressure  
Sea Level Pressure 30.28 in    
Wind  
Wind Speed 2 mph (SW)    
Max Wind Speed 12 mph    
Max Gust Speed 16 mph    
Visibility 8 miles    
Events Fog    
Averages and records for this station are not official NWS values.
T = Trace of Precipitation, MM = Missing Value Source: NWS Daily Summary

Daily Weather History Graph

Daily Weather History Graph

Search for Another Location

Airport or City:

Trip Planner

Search our weather history database for the weather conditions in past years. The results will help you decide how hot, cold, wet, or windy it might be!

Date:

Astronomy

Dec. 04, 2012 Rise Set
Actual Time 7:21 AM EST 5:12 PM EST
Civil Twilight 6:52 AM EST 5:40 PM EST
Nautical Twilight 6:21 AM EST 6:12 PM EST
Astronomical Twilight 5:50 AM EST 6:43 PM EST
Moon 10:51 PM EST (12/4) 11:21 AM EST (12/4)
Length of Visible Light 10h 47m
Length of Day
9h 51m
Waning Gibbous, 69% of the Moon is Illuminated
Dec 4
Waning Gibbous
Dec 6
Last Quarter
Dec 13
New
Dec 20
First Quarter
Dec 28
Full

Hourly Weather History & Observations

Time (EST) Temp. Windchill Dew Point Humidity Pressure Visibility Wind Dir Wind Speed Gust Speed Precip Events Conditions
12:15 AM 45.0 °F 43.5 °F 44.4 °F 98% 30.31 in 10.0 mi NNW 3.5 mph - N/A   Clear
12:35 AM 46.0 °F 44.8 °F 45.5 °F 98% 30.31 in 10.0 mi North 3.5 mph - N/A   Clear
1:15 AM 42.6 °F - 41.9 °F 97% 30.31 in 4.0 mi Calm Calm - N/A   Clear
1:35 AM 44.8 °F - 44.8 °F 100% 30.31 in 5.0 mi Calm Calm - N/A   Clear
1:55 AM 41.9 °F - 41.5 °F 99% 30.31 in 3.0 mi Calm Calm - N/A   Clear
2:15 AM 44.1 °F - 44.1 °F 100% 30.32 in 5.0 mi Calm Calm - N/A   Clear
2:35 AM 42.8 °F - 42.6 °F 99% 30.31 in 3.0 mi Calm Calm - N/A   Clear
2:55 AM 41.0 °F - 40.8 °F 99% 30.31 in 4.0 mi Calm Calm - N/A   Clear
3:15 AM 41.0 °F - 41.0 °F 100% 30.31 in 2.5 mi Calm Calm - N/A   Clear
3:55 AM 41.9 °F - 41.9 °F 100% 30.31 in 4.0 mi Calm Calm - N/A   Clear
4:15 AM 41.4 °F - 41.4 °F 100% 30.31 in 3.0 mi Calm Calm - N/A   Clear
4:35 AM 38.3 °F - 38.3 °F 100% 30.31 in 0.5 mi Calm Calm - N/A Fog Fog
4:55 AM 39.7 °F - 39.7 °F 100% 30.31 in 3.0 mi Calm Calm - N/A   Clear
5:15 AM 37.4 °F - 37.4 °F 100% 30.32 in 3.0 mi Calm Calm - N/A   Clear
5:35 AM 38.1 °F 35.7 °F 38.1 °F 100% 30.32 in 0.8 mi NNW 3.5 mph - N/A   Mist
5:55 AM 39.6 °F - 39.6 °F 100% 30.32 in 1.5 mi Calm Calm - N/A   Mostly Cloudy
6:15 AM 38.5 °F - 38.5 °F 100% 30.33 in 0.5 mi Calm Calm - N/A Fog Fog
6:35 AM 36.5 °F - 36.5 °F 100% 30.33 in 0.5 mi Calm Calm - N/A Fog Fog
6:55 AM 35.6 °F - 35.6 °F 100% 30.34 in 0.5 mi Calm Calm - N/A Fog Fog
7:15 AM 36.5 °F - 36.5 °F 100% 30.34 in 0.8 mi Calm Calm - N/A   Mist
7:35 AM 36.7 °F - 36.7 °F 100% 30.34 in 0.8 mi Calm Calm - N/A   Mostly Cloudy
7:55 AM 37.4 °F 33.8 °F 37.4 °F 100% 30.35 in 2.5 mi WNW 4.6 mph - N/A   Clear
8:15 AM 38.8 °F - 38.8 °F 100% 30.35 in 1.0 mi Calm Calm - N/A   Mist
8:35 AM 42.8 °F - 42.8 °F 100% 30.36 in 5.0 mi Calm Calm - N/A   Clear
8:55 AM 45.5 °F - 45.5 °F 100% 30.36 in 10.0 mi Calm Calm - N/A   Mostly Cloudy
9:15 AM 47.1 °F - 47.1 °F 100% 30.36 in 10.0 mi Calm Calm - N/A   Scattered Clouds
9:35 AM 50.0 °F - 47.3 °F 90% 30.36 in 10.0 mi Calm Calm - N/A   Clear
9:55 AM 52.2 °F - 46.9 °F 82% 30.36 in 10.0 mi WNW 4.6 mph - N/A   Clear
10:15 AM 53.1 °F - 46.0 °F 77% 30.36 in 10.0 mi Calm Calm - N/A   Clear
10:35 AM 54.7 °F - 46.4 °F 74% 30.36 in 10.0 mi Calm Calm - N/A   Clear
10:55 AM 58.1 °F - 47.3 °F 67% 30.35 in 10.0 mi Calm Calm - N/A   Clear
11:15 AM 60.1 °F - 48.2 °F 65% 30.34 in 10.0 mi Calm Calm - N/A   Clear
11:35 AM 62.4 °F - 48.7 °F 61% 30.33 in 10.0 mi NW 3.5 mph - N/A   Clear
11:55 AM 63.7 °F - 49.3 °F 59% 30.32 in 10.0 mi WSW 3.5 mph - N/A   Clear
12:15 PM 65.7 °F - 48.6 °F 54% 30.30 in 10.0 mi WSW 6.9 mph - N/A   Clear
12:35 PM 68.0 °F - 48.0 °F 49% 30.29 in 10.0 mi WSW 4.6 mph - N/A   Clear
12:55 PM 69.3 °F - 47.7 °F 46% 30.28 in 10.0 mi SSW 4.6 mph - N/A   Clear
1:15 PM 70.3 °F - 46.4 °F 42% 30.27 in 10.0 mi SW 11.5 mph 16.1 mph N/A   Clear
1:35 PM 71.4 °F - 45.3 °F 39% 30.26 in 10.0 mi SSW 8.1 mph - N/A   Clear
1:55 PM 71.8 °F - 43.9 °F 37% 30.25 in 10.0 mi SSW 9.2 mph - N/A   Clear
2:15 PM 71.8 °F - 44.1 °F 37% 30.24 in 10.0 mi South 9.2 mph - N/A   Clear
2:35 PM 70.9 °F - 44.4 °F 39% 30.24 in 10.0 mi SSW 10.4 mph - N/A   Clear
2:55 PM 70.7 °F - 44.6 °F 39% 30.24 in 10.0 mi SSW 9.2 mph - N/A   Clear
3:15 PM 71.1 °F - 44.8 °F 39% 30.23 in 10.0 mi South 5.8 mph - N/A   Clear
3:35 PM 70.5 °F - 44.4 °F 39% 30.23 in 10.0 mi SSW 6.9 mph - N/A   Clear
3:55 PM 69.8 °F - 45.7 °F 42% 30.23 in 10.0 mi South 3.5 mph - N/A   Clear
4:15 PM 68.9 °F - 46.2 °F 44% 30.23 in 10.0 mi South 3.5 mph - N/A   Clear
4:35 PM 67.5 °F - 47.1 °F 48% 30.23 in 10.0 mi South 4.6 mph - N/A   Clear
4:55 PM 67.1 °F - 46.9 °F 48% 30.23 in 10.0 mi South 3.5 mph - N/A   Clear
5:15 PM 65.5 °F - 47.3 °F 52% 30.24 in 10.0 mi SSE 3.5 mph - N/A   Clear
5:35 PM 63.7 °F - 47.5 °F 56% 30.24 in 10.0 mi SE 3.5 mph - N/A   Scattered Clouds
5:55 PM 63.3 °F - 47.1 °F 56% 30.24 in 10.0 mi South 3.5 mph - N/A   Clear
6:15 PM 62.6 °F - 46.8 °F 56% 30.24 in 10.0 mi South 3.5 mph - N/A   Mostly Cloudy
6:35 PM 62.1 °F - 46.8 °F 57% 30.24 in 10.0 mi SSE 3.5 mph - N/A   Mostly Cloudy
6:55 PM 62.1 °F - 46.8 °F 57% 30.23 in 10.0 mi South 3.5 mph - N/A   Overcast
7:15 PM 62.6 °F - 46.8 °F 56% 30.23 in 10.0 mi South 3.5 mph - N/A   Overcast
7:35 PM 61.3 °F - 46.8 °F 59% 30.24 in 10.0 mi Calm Calm - N/A   Overcast
7:55 PM 57.4 °F - 47.5 °F 70% 30.24 in 10.0 mi Calm Calm - N/A   Overcast
8:15 PM 58.3 °F - 47.8 °F 68% 30.24 in 10.0 mi Calm Calm - N/A   Overcast
8:35 PM 62.8 °F - 47.3 °F 57% 30.24 in 10.0 mi SW 3.5 mph - N/A   Overcast
8:55 PM 63.0 °F - 47.8 °F 58% 30.24 in 10.0 mi SSW 3.5 mph - N/A   Overcast
9:15 PM 63.3 °F - 48.6 °F 59% 30.24 in 10.0 mi SW 4.6 mph - N/A   Overcast
9:35 PM 62.8 °F - 49.1 °F 61% 30.24 in 10.0 mi Calm Calm - N/A   Mostly Cloudy
9:55 PM 62.6 °F - 49.3 °F 62% 30.23 in 10.0 mi SW 4.6 mph - N/A   Mostly Cloudy
10:15 PM 63.7 °F - 49.1 °F 59% 30.23 in 10.0 mi WSW 4.6 mph - N/A   Overcast
10:35 PM 62.6 °F - 49.5 °F 62% 30.23 in 10.0 mi West 3.5 mph - N/A   Overcast
10:55 PM 61.7 °F - 49.5 °F 64% 30.22 in 10.0 mi West 4.6 mph - N/A   Overcast
11:15 PM 60.8 °F - 49.3 °F 66% 30.22 in 10.0 mi West 4.6 mph - N/A   Scattered Clouds
11:35 PM 60.3 °F - 49.3 °F 67% 30.22 in 10.0 mi West 4.6 mph - N/A   Scattered Clouds
11:55 PM 60.4 °F - 49.1 °F 66% 30.21 in 10.0 mi West 4.6 mph - N/A   Scattered Clouds